EW3967 Weather Reports


Display with metric or nautical units.
time (UTC)temp
F
wind
direction
speed
MPH
gust
MPH
rain 1hr
in
rain 24hr
in
rain mn
in
humidity
%
barometer
mb
20260831033049 87 243 4.0 9.0 0.00 0.00 0.00 44 1010.8
20260831031548 87 159 4.0 9.0 0.00 0.00 0.00 44 1010.9
20260831030049 87 122 3.0 7.0 0.00 0.00 0.00 44 1010.6
20260831024547 87 156 1.0 5.0 0.00 0.00 0.00 44 1010.4
20260831023047 88 179 3.0 7.0 0.00 0.00 0.00 43 1010.1
20260831021549 89 153 3.0 6.0 0.00 0.00 0.00 42 1009.9
20260831020052 89 173 3.0 7.0 0.00 0.00 0.00 41 1009.6
20260831014545 90 234 3.0 8.0 0.00 0.00 0.00 40 1009.4
20260831013058 91 177 2.0 5.0 0.00 0.00 0.00 38 1009.2
20260831011546 93 192 1.0 5.0 0.00 0.00 0.00 37 1009.1
20260831010044 94 158 4.0 7.0 0.00 0.00 0.00 35 1009.1
20260831004541 95 176 2.0 8.0 0.00 0.00 0.00 34 1009.0
20260831003041 97 172 2.0 10.0 0.00 0.00 0.00 32 1008.9
20260831001539 98 168 4.0 13.0 0.00 0.00 0.00 31 1009.0
20260831000039 99 132 6.0 13.0 0.00 0.00 0.00 30 1009.0
20260830234542 99 158 10.0 16.0 0.00 0.00 0.00 30 1009.0
20260830233037 99 202 8.0 17.0 0.00 0.00 0.00 30 1009.1
20260830231536 100 181 7.0 16.0 0.00 0.00 0.00 29 1009.0
20260830230036 100 155 6.0 16.0 0.00 0.00 0.00 30 1009.0
20260830224536 101 205 5.0 10.0 0.00 0.00 0.00 30 1009.0
20260830223033 101 236 5.0 11.0 0.00 0.00 0.00 29 1009.0
20260830221544 101 198 6.0 14.0 0.00 0.00 0.00 29 1009.0
20260830220031 101 216 4.0 16.0 0.00 0.00 0.00 29 1009.1
20260830214531 101 183 7.0 15.0 0.00 0.00 0.00 29 1009.2
20260830213029 101 218 4.0 17.0 0.00 0.00 0.00 29 1009.4
20260830211528 102 106 6.0 13.0 0.00 0.00 0.00 28 1009.4
20260830210025 101 228 3.0 12.0 0.00 0.00 0.00 29 1009.7
20260830204522 101 205 4.0 15.0 0.00 0.00 0.00 29 1009.9
20260830203023 101 136 4.0 11.0 0.00 0.00 0.00 30 1010.1
20260830201516 101 134 6.0 18.0 0.00 0.00 0.00 29 1010.2
20260830200036 101 177 9.0 17.0 0.00 0.00 0.00 29 1010.3
20260830194508 101 147 5.0 12.0 0.00 0.00 0.00 28 1010.5
20260830193005 100 226 6.0 14.0 0.00 0.00 0.00 28 1010.8
20260830191501 100 205 7.0 16.0 0.00 0.00 0.00 29 1010.7
20260830190126 99 236 7.0 19.0 0.00 0.00 0.00 30 1011.0
20260830184608 100 221 7.0 15.0 0.00 0.00 0.00 29 1011.2
20260830183101 99 240 7.0 16.0 0.00 0.00 0.00 30 1011.4
20260830181550 99 240 4.0 18.0 0.00 0.00 0.00 33 1011.5
20260830180048 98 153 3.0 13.0 0.00 0.00 0.00 35 1011.7
20260830174557 98 107 4.0 11.0 0.00 0.00 0.00 35 1011.9
20260830173044 97 148 5.0 12.0 0.00 0.00 0.00 37 1012.2
20260830171542 96 229 6.0 14.0 0.00 0.00 0.00 38 1012.4
20260830170037 96 233 6.0 15.0 0.00 0.00 0.00 39 1012.5
20260830164534 96 166 6.0 13.0 0.00 0.00 0.00 39 1012.6
20260830163034 95 241 6.0 14.0 0.00 0.00 0.00 38 1012.7
20260830161527 95 183 6.0 11.0 0.00 0.00 0.00 39 1012.8
20260830160035 93 240 5.0 12.0 0.00 0.00 0.00 42 1012.8
20260830154519 92 225 5.0 14.0 0.00 0.00 0.00 45 1012.8
20260830153014 91 219 7.0 17.0 0.00 0.00 0.00 45 1012.8
20260830151511 90 132 6.0 15.0 0.00 0.00 0.00 47 1012.8
20260830150010 88 242 3.0 13.0 0.00 0.00 0.00 50 1013.0
20260830144502 87 239 5.0 13.0 0.00 0.00 0.00 51 1013.1
20260830143106 86 132 2.0 13.0 0.00 0.00 0.00 52 1013.1
20260830141558 85 257 3.0 12.0 0.00 0.00 0.00 53 1013.3
20260830140050 84 188 5.0 11.0 0.00 0.00 0.00 53 1013.3
20260830134548 83 211 6.0 13.0 0.00 0.00 0.00 54 1013.3
20260830133048 82 170 4.0 8.0 0.00 0.00 0.00 55 1013.2
20260830131545 81 164 2.0 7.0 0.00 0.00 0.00 58 1013.1
20260830130141 79 181 3.0 8.0 0.00 0.00 0.00 59 1013.0
20260830124540 78 202 1.0 6.0 0.00 0.00 0.00 59 1012.9
20260830123040 78 168 2.0 5.0 0.00 0.00 0.00 60 1012.8
20260830121540 77 165 2.0 6.0 0.00 0.00 0.00 60 1012.8
20260830120036 77 190 1.0 5.0 0.00 0.00 0.00 60 1012.6
20260830114534 77 208 2.0 6.0 0.00 0.00 0.00 59 1012.5
20260830113033 78 192 2.0 7.0 0.00 0.00 0.00 58 1012.5
20260830111532 78 221 2.0 9.0 0.00 0.00 0.00 58 1012.4
20260830110029 78 162 2.0 7.0 0.00 0.00 0.00 57 1012.3
20260830104551 78 124 2.0 7.0 0.00 0.00 0.00 57 1012.3
20260830103029 79 227 2.0 10.0 0.00 0.00 0.00 57 1012.3
20260830101525 79 199 3.0 9.0 0.00 0.00 0.00 57 1012.1
20260830100023 79 203 2.0 8.0 0.00 0.00 0.00 56 1012.1
20260830094524 79 184 4.0 8.0 0.00 0.00 0.00 56 1012.0
20260830093031 79 236 5.0 9.0 0.00 0.00 0.00 55 1011.9
20260830091520 80 150 3.0 9.0 0.00 0.00 0.00 55 1011.8
20260830090020 80 159 3.0 9.0 0.00 0.00 0.00 54 1011.9
20260830084514 80 164 3.0 8.0 0.00 0.00 0.00 53 1011.8
20260830083028 81 193 4.0 9.0 0.00 0.00 0.00 52 1011.7
20260830081511 81 152 4.0 10.0 0.00 0.00 0.00 51 1011.6
20260830080010 82 218 4.0 11.0 0.00 0.00 0.00 51 1011.6
20260830074510 82 165 4.0 11.0 0.00 0.00 0.00 50 1011.8
20260830073007 82 216 4.0 11.0 0.00 0.00 0.00 50 1011.9
20260830071507 83 195 6.0 12.0 0.00 0.00 0.00 49 1011.9
20260830070006 83 173 6.0 14.0 0.00 0.00 0.00 49 1011.9
20260830064506 82 175 7.0 12.0 0.00 0.00 0.00 50 1011.9
20260830063003 82 163 4.0 10.0 0.00 0.00 0.00 51 1012.0
20260830061501 81 174 4.0 9.0 0.00 0.00 0.00 52 1012.1
20260830060100 81 174 3.0 6.0 0.00 0.00 0.00 52 1012.0
20260830054557 82 151 2.0 6.0 0.00 0.00 0.00 51 1012.0
20260830053100 82 183 2.0 6.0 0.00 0.00 0.00 50 1011.9
20260830051554 83 170 1.0 6.0 0.00 0.00 0.00 50 1012.0
20260830050050 83 153 2.0 7.0 0.00 0.00 0.00 49 1012.0
20260830044549 83 152 3.0 4.0 0.00 0.00 0.00 49 1012.1
20260830043049 84 167 1.0 6.0 0.00 0.00 0.00 47 1012.1
20260830041555 85 160 2.0 6.0 0.00 0.00 0.00 46 1012.1
20260830040048 86 158 2.0 8.0 0.00 0.00 0.00 44 1012.0
20260830034555 87 152 3.0 9.0 0.00 0.00 0.00 43 1011.9